Regional Weather Roundup
Issued by NWS

Home | Current Version | Previous Version | Text Only | Print | Product List | Glossary Off
Versions: 1 2 3 4 5 6 7 8 9 10 11 12 13 14 15 16 17 18 19 20 21 22 23 24 25 26 27 28 29 30 31 32 33 34 35 36 37 38 39 40 41 42 43 44 45 46 47 48 49 50

000
ASUS43 KLSX 151457
RWRMO

WEATHER SUMMARY FOR MISSOURI
NATIONAL WEATHER SERVICE SPRINGFIELD MO
900 AM CST FRI DEC 15 2017

NOTE: "FAIR" INDICATES FEW OR NO CLOUDS BELOW 12,000 FEET WITH NO
       SIGNIFICANT WEATHER AND/OR OBSTRUCTIONS TO VISIBILITY.
       CURRENT SKY AND/OR WEATHER CONDITIONS ARE NOT AVAILABLE FOR
       CHILLICOTHE AND FARMINGTON.

MOZ001>031-035>038-043-044-053-054-151600-
...NORTHERN AND WESTERN MISSOURI...

CITY           SKY/WX    TMP DP  RH WIND       PRES   REMARKS
KANSAS CTY INT MOSUNNY   33  29  85 SW6       30.14R WCI  28
LEE`S SUMMIT   MOSUNNY   34  31  88 W7        30.16R WCI  28
ST JOSEPH      PTSUNNY   33  29  85 W8        30.14S WCI  26
CHILLICOTHE      N/A     34  24  67 SW5       30.12F WCI  30

$$
MOZ066>068-077>081-088>096-101>105-151600-
...SOUTHWEST MISSOURI...

CITY           SKY/WX    TMP DP  RH WIND       PRES   REMARKS
SPRINGFIELD    SUNNY     36  28  73 W9        30.15R WCI  29
JOPLIN         SUNNY     35  33  92 W7        30.21R WCI  29
BRANSON        MOSUNNY   36  27  69 CALM      30.19R

$$
MOZ032>034-039>042-045>050-055>058-069>072-151600-
...CENTRAL MISSOURI...

CITY           SKY/WX    TMP DP  RH WIND       PRES   REMARKS
COLUMBIA       NOT AVBL
JEFFERSON CITY SUNNY     33  26  75 NW6       30.14R WCI  28
SEDALIA        SUNNY     36  30  79 NW9       30.15R WCI  29
WARRENSBURG    SUNNY     34  30  86 W6        30.16R WCI  29

$$
MOZ051-052-059>065-151600-
...EAST CENTRAL MISSOURI...

CITY           SKY/WX    TMP DP  RH WIND       PRES   REMARKS
ST LOUIS INTL  CLOUDY    34  25  69 W10       30.10R WCI  26

$$
MOZ072>076-082>087-097>100-106>115-151600-
...SOUTH CENTRAL AND SOUTHEAST MISSOURI...

CITY           SKY/WX    TMP DP  RH WIND       PRES   REMARKS
CAPE GIRARDEAU NOT AVBL
POPLAR BLUFF   SUNNY     35  26  69 SW7       30.19S WCI  29
WEST PLAINS    CLOUDY    33  25  72 W6        30.16R WCI  28

$$



USA.gov is the U.S. government's official web portal to all federal, state and local government web resources and services.